| time (UTC) | temp F | wind direction | speed MPH | gust MPH | rain 1hr in | rain 24hr in | rain mn in | humidity % | barometer mb |
| 20260504081628 | 57 | 72 | 1.0 | 2.0 | 0.00 | 0.00 | 0.00 | 62 | 1008.5 |
| 20260504081123 | 57 | 51 | 1.0 | 2.0 | 0.00 | 0.00 | 0.00 | 60 | 1008.6 |
| 20260504080620 | 57 | 62 | 2.0 | 2.0 | 0.00 | 0.00 | 0.00 | 61 | 1008.7 |
| 20260504080117 | 57 | 63 | 2.0 | 2.0 | 0.00 | 0.00 | 0.00 | 64 | 1008.8 |
| 20260504050433 | 60 | 71 | 1.0 | 1.0 | 0.00 | 0.00 | 0.00 | 60 | 1009.0 |
| 20260504045930 | 60 | 75 | 0.0 | 1.0 | 0.00 | 0.00 | 0.00 | 61 | 1008.9 |
| 20260504045426 | 61 | 72 | 0.0 | 2.0 | 0.00 | 0.00 | 0.00 | 57 | 1008.8 |
| 20260504044922 | 61 | 70 | 1.0 | 2.0 | 0.00 | 0.00 | 0.00 | 58 | 1009.0 |
| 20260504044420 | 61 | 66 | 0.0 | 1.0 | 0.00 | 0.00 | 0.00 | 59 | 1008.8 |
| 20260504043917 | 61 | 70 | 1.0 | 2.0 | 0.00 | 0.00 | 0.00 | 58 | 1009.0 |
| 20260504043414 | 61 | 75 | 0.0 | 2.0 | 0.00 | 0.00 | 0.00 | 59 | 1008.8 |
| 20260504042911 | 62 | 56 | 1.0 | 2.0 | 0.00 | 0.00 | 0.00 | 59 | 1009.0 |
| 20260504042408 | 62 | 66 | 2.0 | 2.0 | 0.00 | 0.00 | 0.00 | 55 | 1009.0 |
| 20260504041904 | 62 | 73 | 1.0 | 2.0 | 0.00 | 0.00 | 0.00 | 58 | 1008.8 |
| 20260504041400 | 62 | 63 | 1.0 | 1.0 | 0.00 | 0.00 | 0.00 | 60 | 1008.9 |
| 20260504040856 | 62 | 72 | 1.0 | 2.0 | 0.00 | 0.00 | 0.00 | 61 | 1008.9 |
| 20260504040354 | 62 | 67 | 2.0 | 2.0 | 0.00 | 0.00 | 0.00 | 60 | 1009.0 |
| 20260504035850 | 62 | 67 | 1.0 | 2.0 | 0.00 | 0.00 | 0.00 | 61 | 1008.9 |
| 20260504035348 | 62 | 65 | 1.0 | 2.0 | 0.00 | 0.00 | 0.00 | 61 | 1008.8 |
| 20260504034844 | 63 | 61 | 1.0 | 2.0 | 0.00 | 0.00 | 0.00 | 61 | 1008.8 |
| 20260504034342 | 63 | 69 | 1.0 | 2.0 | 0.00 | 0.00 | 0.00 | 60 | 1008.7 |
| 20260504033838 | 64 | 71 | 1.0 | 1.0 | 0.00 | 0.00 | 0.00 | 59 | 1008.7 |
| 20260504033337 | 64 | 74 | 1.0 | 1.0 | 0.00 | 0.00 | 0.00 | 59 | 1008.6 |
| 20260504032833 | 64 | 70 | 1.0 | 2.0 | 0.00 | 0.00 | 0.00 | 59 | 1008.5 |
| 20260504032330 | 64 | 57 | 2.0 | 2.0 | 0.00 | 0.00 | 0.00 | 62 | 1008.6 |
| 20260504031827 | 65 | 71 | 1.0 | 1.0 | 0.00 | 0.00 | 0.00 | 61 | 1008.7 |
| 20260504031324 | 65 | 61 | 1.0 | 1.0 | 0.00 | 0.00 | 0.00 | 60 | 1008.5 |
| 20260504030820 | 66 | 70 | 1.0 | 1.0 | 0.00 | 0.00 | 0.00 | 63 | 1008.7 |
| 20260504030318 | 66 | 76 | 0.0 | 1.0 | 0.00 | 0.00 | 0.00 | 60 | 1008.7 |
| 20260504025814 | 67 | 76 | 0.0 | 1.0 | 0.00 | 0.00 | 0.00 | 62 | 1008.7 |
| 20260504025311 | 68 | 76 | 0.0 | 1.0 | 0.00 | 0.00 | 0.00 | 61 | 1008.7 |
| 20260504024808 | 68 | 75 | 1.0 | 1.0 | 0.00 | 0.00 | 0.00 | 58 | 1008.6 |
| 20260504024304 | 68 | 76 | 0.0 | 0.0 | 0.00 | 0.00 | 0.00 | 57 | 1008.7 |
| 20260504023801 | 69 | 80 | 0.0 | 0.0 | 0.00 | 0.00 | 0.00 | 55 | 1008.8 |
| 20260504023257 | 69 | 81 | 0.0 | 0.0 | 0.00 | 0.00 | 0.00 | 53 | 1009.0 |